Location: Medlow Airstrip Trail, Medlow Bath NSW 2780, Australia
(33.6682°S, 150.3233°E)
Time: 15:34:55
(UTC+11:00)

Explorer 11/Cluster Stage 4 - Pass Details

Date: 01 October 2019
Orbit: 467 x 1259 km, 28.8° (Epoch: 17 October)

Event Time Altitude Azimuth Distance (km) Brightness Sun altitude
Rises 09:46:55 0° 275° (W) 2,724 9.1 48.2°
Reaches altitude 10° 09:49:15 10° 287° (WNW) 1,921 8.5 48.6°
Maximum altitude 09:53:04 28° 346° (NNW) 1,260 8.3 49.2°
Drops below altitude 10° 09:57:34 10° 43° (NE) 2,310 9.9 49.9°
Sets 10:00:40 0° 54° (NE) 3,397 10.5 50.3°
